GW3733 Weather Reports


time (UTC)temp
C
wind
direction
speed
KPH
gust
KPH
rain 1hr
cm
rain 24hr
cm
rain mn
cm
humidity
%
barometer
mb
20260903202637 32 352 0.0 0.0 0.00 0.05 0.05 68 1011.2
20260903202132 32 346 0.0 0.0 0.00 0.05 0.05 74 1011.3
20260903201631 32 332 0.0 1.6 0.00 0.05 0.05 70 1011.4
20260903201126 32 316 1.6 1.6 0.00 0.05 0.05 70 1011.7
20260903200621 32 352 1.6 1.6 0.00 0.05 0.05 67 1011.4
20260903200116 32 335 1.6 1.6 0.00 0.05 0.05 66 1011.7
20260903195612 32 353 0.0 1.6 0.00 0.05 0.05 66 1011.8
20260903195108 32 350 0.0 0.0 0.00 0.05 0.05 70 1011.8
20260903194603 32 342 0.0 0.0 0.00 0.05 0.05 66 1012.0
20260903194102 31 338 4.8 4.8 0.00 0.05 0.05 67 1011.9
20260903193559 32 344 1.6 1.6 0.00 0.05 0.05 67 1012.0
20260903193054 32 322 3.2 3.2 0.00 0.05 0.05 69 1012.2
20260903192550 32 346 0.0 0.0 0.00 0.05 0.05 70 1012.1
20260903192046 31 338 0.0 0.0 0.00 0.05 0.05 71 1012.3
20260903191536 31 314 0.0 0.0 0.00 0.05 0.05 72 1012.4
20260903191031 31 320 0.0 1.6 0.00 0.05 0.05 69 1012.5
20260903190530 31 344 1.6 1.6 0.00 0.05 0.05 71 1012.6
20260903190030 31 1 0.0 0.0 0.00 0.05 0.05 71 1012.5
20260903185520 30 327 1.6 1.6 0.00 0.05 0.05 73 1012.7
20260903185015 31 71 3.2 4.8 0.00 0.05 0.05 68 1013.0
20260903184511 31 345 1.6 1.6 0.00 0.05 0.05 68 1012.8
20260903184005 31 281 3.2 3.2 0.00 0.05 0.05 72 1013.0
20260903183500 31 336 1.6 1.6 0.00 0.05 0.05 68 1013.0
20260903182959 31 335 1.6 1.6 0.00 0.05 0.05 69 1012.8
20260903182458 30 357 0.0 0.0 0.00 0.05 0.05 70 1013.1
20260903181954 30 351 1.6 3.2 0.00 0.05 0.05 71 1013.1
20260903181447 30 42 3.2 3.2 0.00 0.05 0.05 69 1013.1
20260903180942 30 326 1.6 1.6 0.00 0.05 0.05 75 1013.2
20260903180437 29 8 3.2 3.2 0.00 0.05 0.05 74 1013.1
20260903175936 28 33 0.0 1.6 0.00 0.05 0.05 75 1013.2
20260903175431 29 331 3.2 3.2 0.00 0.05 0.05 75 1013.4
20260903174924 30 88 6.4 6.4 0.00 0.05 0.05 73 1013.3
20260903174420 29 34 3.2 3.2 0.00 0.05 0.05 75 1013.5
20260903173915 28 32 0.0 1.6 0.00 0.05 0.05 75 1014.0
20260903173414 28 353 1.6 3.2 0.00 0.05 0.05 77 1014.1
20260903172911 28 20 1.6 1.6 0.00 0.05 0.05 77 1014.3
20260903172411 28 27 1.6 1.6 0.00 0.05 0.05 77 1014.1
20260903171906 27 339 0.0 1.6 0.00 0.05 0.05 81 1014.2
20260903171401 26 352 0.0 0.0 0.00 0.05 0.05 80 1014.6
20260903170900 27 340 0.0 1.6 0.00 0.05 0.05 86 1014.4
20260903170355 27 0 0.0 1.6 0.00 0.05 0.05 79 1014.6
20260903165854 27 18 0.0 0.0 0.00 0.05 0.05 86 1014.5
20260903165349 26 349 1.6 1.6 0.00 0.05 0.05 84 1014.8
20260903164844 25 354 0.0 0.0 0.00 0.05 0.05 90 1014.9
20260903164339 24 353 0.0 0.0 0.00 0.05 0.05 90 1015.0
20260903163838 25 347 0.0 0.0 0.00 0.05 0.05 88 1015.1
20260903163335 25 346 0.0 0.0 0.00 0.05 0.05 85 1015.2
20260903162831 25 348 0.0 0.0 0.00 0.05 0.05 86 1015.2
20260903162327 26 341 0.0 1.6 0.00 0.05 0.05 85 1015.3
20260903161822 26 40 1.6 1.6 0.00 0.05 0.05 88 1015.4
20260903161318 25 339 0.0 0.0 0.00 0.05 0.05 90 1015.5
20260903160814 25 348 0.0 0.0 0.00 0.05 0.05 89 1015.4
20260903160312 25 356 0.0 0.0 0.00 0.05 0.05 86 1015.4
20260903155811 25 356 0.0 0.0 0.00 0.05 0.05 85 1015.7
20260903155307 25 356 0.0 0.0 0.00 0.05 0.05 88 1015.8
20260903154801 25 359 0.0 0.0 0.00 0.05 0.05 86 1015.9
20260903154258 25 9 0.0 0.0 0.00 0.05 0.05 86 1015.9
20260903153753 25 344 0.0 0.0 0.00 0.05 0.05 87 1015.9
20260903153249 25 340 1.6 1.6 0.00 0.05 0.05 87 1015.8
20260903152745 25 331 1.6 3.2 0.00 0.05 0.05 87 1015.4
20260903152241 25 1 0.0 0.0 0.00 0.05 0.05 87 1015.6
20260903151741 25 330 3.2 3.2 0.00 0.05 0.05 86 1015.9
20260903151236 25 336 4.8 4.8 0.00 0.05 0.05 85 1015.8
20260903150731 25 351 1.6 1.6 0.00 0.05 0.05 87 1015.5
20260903150225 25 326 1.6 3.2 0.00 0.05 0.05 90 1015.6
20260903145725 23 345 3.2 3.2 0.00 0.05 0.05 91 1016.0
20260903145220 23 1 0.0 0.0 0.00 0.05 0.05 92 1015.9
20260903144719 23 25 0.0 0.0 0.00 0.05 0.05 92 1015.8
20260903144215 24 8 1.6 3.2 0.00 0.05 0.05 92 1016.0
20260903143711 24 359 0.0 1.6 0.00 0.05 0.05 92 1015.3
20260903143207 23 3 0.0 1.6 0.00 0.05 0.05 96 1015.2
20260903142702 23 8 0.0 0.0 0.00 0.05 0.05 98 1015.1
20260903142158 22 7 0.0 0.0 0.00 0.05 0.05 98 1015.4
20260903141654 22 7 1.6 1.6 0.00 0.05 0.05 97 1015.0
20260903141149 23 8 0.0 0.0 0.00 0.05 0.05 98 1015.4
20260903140644 23 8 0.0 0.0 0.00 0.05 0.05 98 1015.3
20260903140139 23 8 0.0 0.0 0.00 0.05 0.05 98 1015.1
20260903135635 22 8 0.0 0.0 0.30 0.05 0.05 99 1015.1
20260903135130 22 8 0.0 0.0 0.30 0.05 0.05 98 1015.0
20260903134629 22 8 0.0 0.0 0.00 0.00 0.00 95 1014.8
20260903134125 23 5 0.0 0.0 0.00 0.00 0.00 95 1015.2
20260903133623 23 6 0.0 0.0 0.00 0.00 0.00 95 1015.1
20260903133119 22 6 0.0 0.0 0.00 0.00 0.00 96 1015.1
20260903132613 22 6 0.0 0.0 0.00 0.00 0.00 95 1015.1
20260903132108 22 7 0.0 0.0 0.00 0.00 0.00 94 1015.2
20260903131607 22 359 0.0 0.0 0.00 0.00 0.00 95 1015.6
20260903131106 22 1 0.0 0.0 0.00 0.00 0.00 95 1015.4
20260903130601 22 1 0.0 0.0 0.00 0.00 0.00 96 1015.4
20260903130056 22 5 0.0 0.0 0.00 0.00 0.00 97 1015.2
20260903125554 21 1 0.0 1.6 0.00 0.00 0.00 98 1015.1
20260903125050 21 358 0.0 0.0 0.00 0.00 0.00 99 1015.3
20260903124544 21 358 0.0 0.0 0.00 0.00 0.00 99 1015.6
20260903124039 21 358 0.0 0.0 0.00 0.00 0.00 99 1015.7
20260903123538 21 358 0.0 0.0 0.00 0.00 0.00 99 1015.6
20260903123037 21 358 0.0 0.0 0.00 0.00 0.00 99 1015.9
20260903122536 21 358 0.0 0.0 0.00 0.00 0.00 99 1015.8
20260903122031 21 358 0.0 0.0 0.00 0.00 0.00 99 1016.0
20260903121526 21 358 0.0 0.0 0.00 0.00 0.00 99 1015.9
20260903121022 21 358 0.0 0.0 0.00 0.00 0.00 99 1016.1
20260903120520 21 10 1.6 1.6 0.00 0.00 0.00 99 1016.1
20260903120015 21 355 0.0 0.0 0.00 0.00 0.00 99 1016.4
20260903115514 21 355 0.0 0.0 0.00 0.00 0.00 99 1016.4
20260903115013 21 354 0.0 0.0 0.00 0.00 0.00 99 1016.1
20260903114509 20 355 0.0 0.0 0.00 0.00 0.00 99 1015.9
20260903114004 20 3 0.0 1.6 0.00 0.00 0.00 99 1016.0
20260903113455 20 357 0.0 0.0 0.00 0.00 0.00 99 1015.9
20260903112950 20 7 1.6 1.6 0.00 0.00 0.00 99 1016.0
20260903112446 20 6 0.0 0.0 0.00 0.00 0.00 99 1015.8
20260903111945 20 357 0.0 0.0 0.00 0.00 0.00 99 1015.9
20260903111444 20 355 1.6 1.6 0.00 0.00 0.00 99 1015.6
20260903110941 20 357 0.0 0.0 0.00 0.00 0.00 99 1015.6
20260903110437 20 355 0.0 1.6 0.00 0.00 0.00 99 1015.4
20260903105931 20 356 0.0 0.0 0.00 0.00 0.00 99 1015.5
20260903105426 20 358 1.6 1.6 0.00 0.00 0.00 99 1015.1
20260903104926 20 356 0.0 1.6 0.00 0.00 0.00 99 1015.3
20260903104420 20 1 0.0 0.0 0.00 0.00 0.00 99 1015.1
20260903103917 20 0 0.0 0.0 0.00 0.00 0.00 99 1014.8
20260903103413 19 358 1.6 1.6 0.00 0.00 0.00 99 1014.9
20260903102908 19 359 0.0 1.6 0.00 0.00 0.00 99 1014.7
20260903102402 19 358 0.0 0.0 0.00 0.00 0.00 99 1014.4
20260903101902 19 358 0.0 0.0 0.00 0.00 0.00 99 1014.0
20260903101357 19 358 0.0 0.0 0.00 0.00 0.00 99 1014.0
20260903100853 19 358 0.0 0.0 0.00 0.00 0.00 99 1013.6
20260903100348 19 358 0.0 0.0 0.00 0.00 0.00 99 1013.3
20260903095844 18 358 0.0 0.0 0.00 0.00 0.00 99 1013.3
20260903095344 19 358 0.0 0.0 0.00 0.00 0.00 99 1013.4
20260903094840 19 358 0.0 0.0 0.00 0.00 0.00 99 1013.2
20260903094334 19 358 0.0 0.0 0.00 0.00 0.00 99 1013.1
20260903093830 19 358 0.0 0.0 0.00 0.00 0.00 99 1013.0
20260903093325 18 358 0.0 0.0 0.00 0.00 0.00 99 1013.0
20260903092820 18 358 0.0 0.0 0.00 0.00 0.00 99 1013.2
20260903092315 18 358 0.0 0.0 0.00 0.00 0.00 99 1013.2
20260903091813 18 358 0.0 0.0 0.00 0.00 0.00 99 1013.0
20260903091308 18 358 0.0 0.0 0.00 0.00 0.00 99 1012.9
20260903090804 19 358 0.0 0.0 0.00 0.00 0.00 99 1013.0
20260903090303 19 358 0.0 0.0 0.00 0.00 0.00 99 1012.9
20260903085802 19 358 0.0 0.0 0.00 0.00 0.00 99 1013.1
20260903085256 19 358 0.0 0.0 0.00 0.00 0.00 99 1013.2
20260903084754 19 358 0.0 0.0 0.00 0.00 0.00 99 1013.2
20260903084249 19 358 0.0 0.0 0.00 0.00 0.00 99 1013.3
20260903083744 19 358 0.0 0.0 0.00 0.00 0.00 99 1013.0
20260903083243 19 358 0.0 0.0 0.00 0.00 0.00 99 1012.8
20260903082743 19 358 0.0 0.0 0.00 0.00 0.00 99 1012.7
20260903082239 19 358 0.0 0.0 0.00 0.00 0.00 99 1013.0
20260903081739 19 358 0.0 0.0 0.00 0.00 0.00 99 1012.9
20260903081235 19 358 0.0 0.0 0.00 0.00 0.00 99 1013.0
20260903080731 19 358 0.0 0.0 0.00 0.00 0.00 99 1013.2
20260903080228 19 358 0.0 0.0 0.00 0.00 0.00 99 1012.7
20260903075728 19 358 0.0 0.0 0.00 0.00 0.00 99 1012.7
20260903075223 19 358 0.0 0.0 0.00 0.00 0.00 99 1012.8
20260903074722 19 358 0.0 0.0 0.00 0.00 0.00 99 1012.9
20260903074218 19 358 0.0 0.0 0.00 0.00 0.00 99 1012.6
20260903073713 20 358 0.0 0.0 0.00 0.00 0.00 99 1012.9
20260903073208 20 358 0.0 0.0 0.00 0.00 0.00 99 1012.9
20260903072703 20 358 0.0 0.0 0.00 0.00 0.00 99 1012.9
20260903072200 20 358 0.0 0.0 0.00 0.00 0.00 99 1013.1
20260903071655 20 358 0.0 0.0 0.00 0.00 0.00 99 1013.0
20260903071151 20 358 0.0 0.0 0.00 0.00 0.00 99 1013.0
20260903070646 19 358 0.0 0.0 0.00 0.00 0.00 99 1012.9
20260903070142 19 358 0.0 0.0 0.00 0.00 0.00 99 1013.0
20260903065641 19 358 0.0 0.0 0.00 0.00 0.00 99 1013.0
20260903065136 19 358 0.0 0.0 0.00 0.00 0.00 99 1013.0
20260903064635 19 358 0.0 0.0 0.00 0.00 0.00 99 1013.0
20260903064130 19 358 0.0 0.0 0.00 0.00 0.00 99 1012.9
20260903063626 20 358 0.0 0.0 0.00 0.00 0.00 99 1012.8
20260903063121 20 358 0.0 0.0 0.00 0.00 0.00 99 1012.7
20260903062617 20 358 0.0 0.0 0.00 0.00 0.00 99 1013.0
20260903062112 19 358 0.0 0.0 0.00 0.00 0.00 99 1012.9
20260903061607 19 358 0.0 0.0 0.00 0.00 0.00 99 1012.8
20260903061107 19 358 0.0 0.0 0.00 0.00 0.00 99 1012.8
20260903060606 20 358 0.0 0.0 0.00 0.00 0.00 99 1012.9
20260903055559 20 358 0.0 0.0 0.00 0.00 0.00 99 1012.9
20260903055057 20 358 0.0 0.0 0.00 0.00 0.00 99 1013.0
20260903054552 20 358 0.0 0.0 0.00 0.00 0.00 99 1013.1
20260903054049 20 358 0.0 0.0 0.00 0.00 0.00 99 1013.1
20260903053543 20 358 0.0 0.0 0.00 0.00 0.00 99 1013.0
20260903053040 20 358 0.0 0.0 0.00 0.00 0.00 99 1012.9
20260903052535 20 358 0.0 0.0 0.00 0.00 0.00 99 1013.0
20260903052031 20 358 0.0 0.0 0.00 0.00 0.00 99 1013.1
20260903051530 20 358 0.0 0.0 0.00 0.00 0.00 99 1013.1
20260903051027 20 358 0.0 0.0 0.00 0.00 0.00 99 1013.2
20260903050525 20 358 0.0 0.0 0.00 0.00 0.00 99 1013.1
20260903050021 21 358 0.0 0.0 0.00 0.00 0.00 99 1013.1
20260903045520 21 358 0.0 0.0 0.00 0.00 0.00 99 1013.4
20260903045017 21 358 0.0 0.0 0.00 0.00 0.00 99 1013.3
20260903044513 21 358 0.0 0.0 0.00 0.00 0.00 99 1013.3
20260903044008 21 358 0.0 0.0 0.00 0.00 0.00 99 1013.2
20260903043504 21 358 0.0 0.0 0.00 0.00 0.00 99 1013.3
20260903043002 21 358 0.0 0.0 0.00 0.00 0.00 99 1013.2
20260903042458 21 358 0.0 0.0 0.00 0.00 0.00 99 1013.3
20260903041953 21 358 0.0 0.0 0.00 0.00 0.00 99 1013.2
20260903041450 21 358 0.0 0.0 0.00 0.00 0.00 99 1013.4
20260903040945 21 358 0.0 0.0 0.00 0.00 0.00 99 1013.4
20260903040444 21 358 0.0 0.0 0.00 0.00 0.00 99 1013.5
20260903035941 21 358 0.0 0.0 0.00 0.00 0.00 99 1013.6
20260903035437 21 358 0.0 0.0 0.00 0.00 0.00 99 1013.4
20260903034932 21 358 0.0 0.0 0.00 0.00 0.00 99 1013.6
20260903034432 21 358 0.0 0.0 0.00 0.00 0.00 99 1013.6
20260903033927 21 358 0.0 0.0 0.00 0.00 0.00 99 1013.4
20260903033422 21 358 0.0 0.0 0.00 0.00 0.00 99 1013.3
20260903032917 21 358 0.0 0.0 0.00 0.00 0.00 99 1013.5
20260903032413 21 358 0.0 0.0 0.00 0.00 0.00 99 1013.5
20260903031914 21 358 0.0 0.0 0.00 0.00 0.00 99 1013.4
20260903031413 21 358 0.0 0.0 0.00 0.00 0.00 99 1013.4
20260903030908 21 358 0.0 0.0 0.00 0.00 0.00 99 1013.4
20260903030404 21 358 0.0 0.0 0.00 0.00 0.00 99 1013.4
20260903025900 21 358 0.0 0.0 0.00 0.00 0.00 99 1013.3
20260903025355 21 358 0.0 0.0 0.00 0.00 0.00 99 1013.4
20260903024850 21 358 0.0 0.0 0.00 0.00 0.00 99 1013.5
20260903024349 21 358 0.0 0.0 0.00 0.00 0.00 99 1013.2
20260903023845 21 358 0.0 0.0 0.00 0.00 0.00 99 1013.5
20260903023340 21 358 0.0 0.0 0.00 0.00 0.00 99 1013.4
20260903022835 21 358 0.0 0.0 0.00 0.00 0.00 99 1013.2
20260903022335 21 358 0.0 0.0 0.00 0.00 0.00 99 1013.1
20260903021833 21 358 0.0 0.0 0.00 0.00 0.00 99 1013.2
20260903021330 21 358 0.0 0.0 0.00 0.00 0.00 99 1013.3
20260903020829 22 358 0.0 0.0 0.00 0.00 0.00 99 1013.4
20260903020324 22 358 0.0 0.0 0.00 0.00 0.00 99 1013.2
20260903015819 21 358 0.0 0.0 0.00 0.00 0.00 98 1013.3
20260903015315 22 359 0.0 0.0 0.00 0.00 0.00 98 1013.4
20260903014810 22 359 0.0 0.0 0.00 0.00 0.00 98 1013.4
20260903014310 22 359 0.0 0.0 0.00 0.00 0.00 98 1013.9
20260903013805 22 359 0.0 0.0 0.00 0.00 0.00 97 1013.7
20260903013304 22 359 0.0 0.0 0.00 0.00 0.00 97 1013.4
20260903012803 22 359 0.0 0.0 0.00 0.00 0.00 97 1013.5
20260903012257 22 359 0.0 0.0 0.00 0.00 0.00 97 1013.4
20260903011751 22 359 0.0 0.0 0.00 0.00 0.00 96 1013.6
20260903011250 22 0 0.0 0.0 0.00 0.00 0.00 96 1013.6
20260903010746 23 359 0.0 0.0 0.00 0.00 0.00 95 1014.0
20260903010241 23 0 0.0 0.0 0.00 0.00 0.00 95 1013.4
20260903005740 23 0 0.0 0.0 0.00 0.00 0.00 94 1013.9
20260903005235 23 0 0.0 0.0 0.00 0.00 0.00 93 1014.0
20260903004730 23 0 0.0 0.0 0.00 0.00 0.00 93 1014.0
20260903004226 23 0 0.0 0.0 0.00 0.00 0.00 93 1013.9
20260903003721 23 0 0.0 0.0 0.00 0.00 0.00 93 1013.9
20260903003216 23 0 0.0 0.0 0.00 0.00 0.00 91 1014.1
20260903002711 24 0 0.0 0.0 0.00 0.00 0.00 92 1014.0
20260903002205 24 0 0.0 0.0 0.00 0.00 0.00 91 1013.7
20260903001701 24 0 0.0 0.0 0.00 0.00 0.00 90 1013.9
20260903001154 24 0 0.0 0.0 0.00 0.00 0.00 90 1013.6
20260903000650 25 0 0.0 0.0 0.00 0.00 0.00 90 1013.9
20260903000149 25 0 0.0 0.0 0.00 0.00 0.00 88 1013.7
20260902235643 25 0 0.0 0.0 0.00 0.00 0.00 87 1014.2
20260902235138 25 0 0.0 0.0 0.00 0.00 0.00 88 1014.2
20260902234632 25 0 0.0 0.0 0.00 0.00 0.00 87 1014.1
20260902234130 25 0 0.0 0.0 0.00 0.00 0.00 84 1014.1
20260902233625 25 359 0.0 0.0 0.00 0.00 0.00 83 1014.1
20260902233120 26 357 0.0 3.2 0.00 0.00 0.00 83 1014.1
20260902232614 26 1 0.0 0.0 0.00 0.00 0.00 84 1013.6
20260902232108 26 345 1.6 1.6 0.00 0.00 0.00 84 1013.7
20260902231607 26 6 0.0 0.0 0.00 0.00 0.00 81 1013.6
20260902231107 27 3 0.0 0.0 0.00 0.00 0.00 79 1013.9
20260902230603 27 355 0.0 0.0 0.00 0.00 0.00 80 1013.6
20260902230101 27 355 0.0 0.0 0.00 0.00 0.00 80 1014.0
20260902225556 27 26 0.0 0.0 0.00 0.00 0.00 76 1014.2
20260902225056 27 5 0.0 0.0 0.00 0.00 0.00 77 1014.0
20260902224555 27 19 1.6 1.6 0.00 0.00 0.00 76 1014.1
20260902224050 27 23 0.0 0.0 0.00 0.00 0.00 79 1014.0
20260902223547 27 16 0.0 1.6 0.00 0.00 0.00 78 1013.7
20260902223046 27 11 0.0 0.0 0.00 0.00 0.00 77 1013.7
20260902222545 27 345 1.6 1.6 0.00 0.00 0.00 82 1013.6
20260902222043 27 346 0.0 0.0 0.00 0.00 0.00 81 1013.7
20260902221538 28 359 0.0 0.0 0.00 0.00 0.00 79 1013.4
20260902221033 28 13 0.0 0.0 0.00 0.00 0.00 76 1013.4
20260902220528 28 357 0.0 0.0 0.00 0.00 0.00 78 1013.4
20260902220023 28 2 0.0 0.0 0.00 0.00 0.00 75 1013.5
20260902215519 28 12 0.0 0.0 0.00 0.00 0.00 75 1013.2
20260902215015 28 351 0.0 0.0 0.00 0.00 0.00 76 1013.3
20260902214514 28 16 0.0 0.0 0.00 0.00 0.00 73 1013.4
20260902214013 28 358 0.0 1.6 0.00 0.00 0.00 73 1013.6
20260902213509 28 6 1.6 3.2 0.00 0.00 0.00 72 1013.7
20260902213008 28 2 0.0 0.0 0.00 0.00 0.00 72 1013.7
20260902212504 29 358 0.0 0.0 0.00 0.00 0.00 71 1013.7
20260902212000 29 351 0.0 0.0 0.00 0.00 0.00 71 1013.9
20260902211456 28 354 0.0 0.0 0.00 0.00 0.00 71 1013.6
20260902210951 28 0 1.6 1.6 0.00 0.00 0.00 71 1013.9
20260902210445 28 1 4.8 6.4 0.00 0.00 0.00 70 1013.9
20260902205944 28 321 3.2 3.2 0.00 0.00 0.00 72 1014.2
20260902205439 28 355 0.0 0.0 0.00 0.00 0.00 71 1014.1
20260902204935 28 304 1.6 3.2 0.00 0.00 0.00 71 1014.3
20260902204434 28 350 0.0 0.0 0.00 0.00 0.00 71 1013.9
20260902203930 28 49 3.2 4.8 0.00 0.00 0.00 70 1014.0
20260902203425 29 325 1.6 1.6 0.00 0.00 0.00 73 1013.9